TimeCDT,TemperatureF,Dew PointF,Humidity,Sea Level PressureIn,VisibilityMPH,Wind Direction,Wind SpeedMPH,Gust SpeedMPH,PrecipitationIn,Events,Conditions,WindDirDegrees,DateUTC
12:15 AM,70.7,70.5,99,30.22,7.0,SE,3.5,-,N/A,,Clear,140,2013-07-16 05:15:00
12:35 AM,72.9,71.8,96,30.22,10.0,Calm,Calm,-,N/A,,Clear,0,2013-07-16 05:35:00
12:55 AM,73.0,72.0,96,30.23,10.0,Calm,Calm,-,N/A,,Scattered Clouds,0,2013-07-16 05:55:00
1:20 AM,71.6,69.8,94,30.23,10.0,Calm,Calm,-,N/A,,Scattered Clouds,0,2013-07-16 06:20:00
1:35 AM,70.0,69.8,99,30.23,10.0,Calm,Calm,-,N/A,,Scattered Clouds,0,2013-07-16 06:35:00
1:55 AM,69.6,69.6,100,30.23,7.0,Calm,Calm,-,N/A,,Clear,0,2013-07-16 06:55:00
2:15 AM,70.2,70.2,100,30.23,5.0,Calm,Calm,-,N/A,,Clear,0,2013-07-16 07:15:00
2:35 AM,68.7,68.5,99,30.23,7.0,Calm,Calm,-,N/A,,Scattered Clouds,0,2013-07-16 07:35:00
2:55 AM,68.9,68.9,100,30.23,5.0,Calm,Calm,-,N/A,,Clear,0,2013-07-16 07:55:00
3:15 AM,68.9,68.9,100,30.23,4.0,Calm,Calm,-,N/A,,Clear,0,2013-07-16 08:15:00
3:35 AM,68.2,68.2,100,30.23,4.0,Calm,Calm,-,N/A,,Clear,0,2013-07-16 08:35:00
3:55 AM,67.3,67.3,100,30.23,3.0,Calm,Calm,-,N/A,,Clear,0,2013-07-16 08:55:00
4:15 AM,67.1,67.1,100,30.23,4.0,Calm,Calm,-,N/A,,Clear,0,2013-07-16 09:15:00
4:35 AM,67.5,67.5,100,30.23,5.0,Calm,Calm,-,N/A,,Clear,0,2013-07-16 09:35:00
4:55 AM,66.4,66.4,100,30.24,5.0,Calm,Calm,-,N/A,,Clear,0,2013-07-16 09:55:00
5:15 AM,66.4,66.4,100,30.24,5.0,Calm,Calm,-,N/A,,Clear,0,2013-07-16 10:15:00
5:35 AM,66.4,66.4,100,30.24,5.0,Calm,Calm,-,N/A,,Clear,0,2013-07-16 10:35:00
5:55 AM,65.7,65.7,100,30.24,4.0,Calm,Calm,-,N/A,,Clear,0,2013-07-16 10:55:00
6:15 AM,66.2,66.2,100,30.24,7.0,Calm,Calm,-,N/A,,Clear,0,2013-07-16 11:15:00
6:35 AM,68.5,68.5,100,30.24,7.0,Calm,Calm,-,N/A,,Clear,0,2013-07-16 11:35:00
6:55 AM,71.6,70.9,98,30.24,7.0,Calm,Calm,-,N/A,,Clear,0,2013-07-16 11:55:00
7:15 AM,74.3,72.9,95,30.25,10.0,Calm,Calm,-,N/A,,Clear,0,2013-07-16 12:15:00
7:35 AM,76.3,73.8,92,30.25,10.0,Calm,Calm,-,N/A,,Clear,0,2013-07-16 12:35:00
7:55 AM,78.3,74.3,88,30.25,10.0,SSW,5.8,-,N/A,,Clear,210,2013-07-16 12:55:00
8:15 AM,79.9,72.0,77,30.26,10.0,SW,5.8,-,N/A,,Clear,220,2013-07-16 13:15:00
8:35 AM,80.8,72.0,74,30.25,10.0,SW,5.8,-,N/A,,Clear,220,2013-07-16 13:35:00
8:55 AM,82.6,72.0,70,30.26,10.0,SSW,5.8,-,N/A,,Clear,210,2013-07-16 13:55:00
9:15 AM,83.8,72.5,69,30.26,10.0,WSW,5.8,-,N/A,,Clear,240,2013-07-16 14:15:00
9:35 AM,84.9,71.8,65,30.26,10.0,WSW,8.1,-,N/A,,Clear,240,2013-07-16 14:35:00
9:55 AM,86.2,70.9,60,30.26,10.0,WSW,5.8,-,N/A,,Scattered Clouds,240,2013-07-16 14:55:00
10:15 AM,87.3,70.3,57,30.26,10.0,WSW,11.5,16.1,N/A,,Scattered Clouds,240,2013-07-16 15:15:00
10:35 AM,87.6,69.1,54,30.26,10.0,West,9.2,19.6,N/A,,Clear,260,2013-07-16 15:35:00
10:55 AM,89.1,69.3,52,30.25,10.0,West,8.1,-,N/A,,Scattered Clouds,270,2013-07-16 15:55:00
11:15 AM,89.4,68.2,49,30.25,10.0,WSW,10.4,-,N/A,,Scattered Clouds,240,2013-07-16 16:15:00
11:35 AM,89.4,68.2,49,30.25,10.0,West,9.2,-,N/A,,Scattered Clouds,270,2013-07-16 16:35:00
11:55 AM,90.5,68.9,49,30.24,10.0,West,8.1,-,N/A,,Mostly Cloudy,270,2013-07-16 16:55:00
12:15 PM,91.9,67.3,44,30.25,10.0,SW,8.1,-,N/A,,Mostly Cloudy,220,2013-07-16 17:15:00
12:35 PM,90.0,67.5,47,30.24,10.0,SSW,5.8,-,N/A,,Mostly Cloudy,210,2013-07-16 17:35:00
12:55 PM,93.4,66.0,40,30.24,10.0,WSW,6.9,-,N/A,,Mostly Cloudy,240,2013-07-16 17:55:00
1:15 PM,92.5,66.9,43,30.24,10.0,WSW,8.1,-,N/A,,Mostly Cloudy,240,2013-07-16 18:15:00
1:35 PM,94.5,64.9,38,30.23,10.0,West,10.4,16.1,N/A,,Mostly Cloudy,270,2013-07-16 18:35:00
1:55 PM,91.4,66.2,43,30.23,10.0,West,8.1,16.1,N/A,,Mostly Cloudy,260,2013-07-16 18:55:00
2:15 PM,88.7,67.8,50,30.23,10.0,NW,11.5,-,N/A,,Mostly Cloudy,310,2013-07-16 19:15:00
2:35 PM,91.0,64.0,41,30.23,10.0,WNW,5.8,-,N/A,,Scattered Clouds,300,2013-07-16 19:35:00
2:55 PM,93.2,68.4,44,30.22,10.0,WNW,3.5,-,N/A,,Clear,290,2013-07-16 19:55:00
3:55 PM,79.5,71.4,76,30.23,4.0,WNW,15.0,29.9,0.07,Rain,Heavy Rain,300,2013-07-16 20:55:00
4:15 PM,81.1,74.3,80,30.23,10.0,NNW,3.5,-,0.01,,Scattered Clouds,340,2013-07-16 21:15:00
4:35 PM,86.7,71.8,61,30.22,10.0,Calm,Calm,-,0.01,,Scattered Clouds,0,2013-07-16 21:35:00
4:55 PM,88.9,71.2,56,30.21,10.0,West,4.6,-,0.01,,Scattered Clouds,260,2013-07-16 21:55:00
5:15 PM,86.2,72.3,63,30.21,10.0,West,3.5,-,N/A,,Scattered Clouds,260,2013-07-16 22:15:00
5:35 PM,83.8,74.3,73,30.22,10.0,West,5.8,-,0.01,Rain,Light Rain,260,2013-07-16 22:35:00
5:55 PM,83.1,74.8,76,30.21,10.0,Calm,Calm,-,0.01,,Mostly Cloudy,0,2013-07-16 22:55:00
6:15 PM,84.4,73.9,71,30.21,10.0,SW,5.8,-,N/A,,Mostly Cloudy,220,2013-07-16 23:15:00
6:35 PM,87.1,72.0,61,30.21,10.0,SW,11.5,-,N/A,,Overcast,220,2013-07-16 23:35:00
6:55 PM,83.3,70.5,65,30.21,10.0,South,5.8,-,N/A,,Scattered Clouds,180,2013-07-16 23:55:00
7:15 PM,83.8,71.1,65,30.21,10.0,SSE,3.5,-,N/A,,Clear,150,2013-07-17 00:15:00
7:35 PM,82.9,71.8,69,30.21,10.0,SSE,3.5,-,N/A,,Clear,160,2013-07-17 00:35:00
7:55 PM,82.4,72.0,71,30.21,10.0,South,3.5,-,N/A,,Clear,170,2013-07-17 00:55:00
8:15 PM,82.4,72.0,71,30.21,10.0,Calm,Calm,-,N/A,,Clear,0,2013-07-17 01:15:00
8:35 PM,80.6,72.1,75,30.21,10.0,Calm,Calm,-,N/A,,Clear,0,2013-07-17 01:35:00
8:55 PM,78.8,73.6,84,30.21,10.0,Calm,Calm,-,N/A,,Clear,0,2013-07-17 01:55:00
9:15 PM,77.9,76.1,94,30.22,10.0,Calm,Calm,-,N/A,,Clear,0,2013-07-17 02:15:00
9:35 PM,76.1,75.7,99,30.22,10.0,Calm,Calm,-,N/A,,Clear,0,2013-07-17 02:35:00
9:55 PM,74.7,74.3,99,30.23,10.0,Calm,Calm,-,N/A,,Clear,0,2013-07-17 02:55:00
10:15 PM,74.7,74.7,100,30.23,10.0,Calm,Calm,-,N/A,,Clear,0,2013-07-17 03:15:00
10:35 PM,75.6,75.6,100,30.24,7.0,Calm,Calm,-,N/A,,Clear,0,2013-07-17 03:35:00
10:55 PM,74.5,74.5,100,30.24,7.0,Calm,Calm,-,N/A,,Clear,0,2013-07-17 03:55:00
11:15 PM,73.4,73.4,100,30.25,4.0,Calm,Calm,-,N/A,,Clear,0,2013-07-17 04:15:00
11:35 PM,72.0,72.0,100,30.25,7.0,Calm,Calm,-,N/A,,Clear,0,2013-07-17 04:35:00
11:55 PM,72.7,72.7,100,30.25,4.0,South,3.5,-,N/A,,Clear,180,2013-07-17 04:55:00